Hourly Weather Roundup
Issued by NWS Central Illinois

Home | Current Version | Previous Version | Text Only | Print | Product List | Glossary On
Versions: 1 2 3 4 5 6 7 8 9 10 11 12 13 14 15 16 17 18 19 20 21 22 23 24 25 26 27 28 29 30 31 32 33 34 35 36 37 38 39 40 41 42 43 44 45 46 47 48 49 50
000
NZUS43 KILX 171310
HWRILX

Area Weather Roundup
National Weather Service Lincoln IL
700 AM CST WED JAN 17 2018

NOTE:  "FAIR" indicates few or no clouds below 12,000 feet, with
       no sigificant weather and/or obstructions to visibility.


CITY           SKY/WX    TMP DP  RH WIND       PRES   REMARKS
Bloomington    FAIR      -2  -5  87 W8        30.58R WCI -17
Champaign      FAIR      -4  -8  83 W8        30.59S WCI -19
Danville       FAIR      -2  -5  84 W7        30.56R WCI -15
Decatur        FAIR       0  -2  91 W6        30.61S WCI -12
Effingham      FAIR       0  -4  85 W6        30.65S WCI -12
Flora          FAIR       6   1  78 W9        30.66S WCI  -8
Galesburg      FAIR      -3  -5  87 CALM      30.61S
Jacksonville   CLOUDY    -2  -6  82 W6        30.65S WCI -14
Lacon          FAIR      -2  -5  85 CALM      30.60S
Lawrenceville  FAIR      -3  -4  95 W5        30.66R WCI -13
Litchfield     PTCLDY     0  -3  85 W7        30.64S WCI -13
$$


CITY           SKY/WX    TMP DP  RH WIND       PRES   REMARKS
Lincoln        FAIR       1  -2  86 CALM      30.62S
Macomb         CLOUDY    -3  -6  87 W8        30.65R WCI -18
Mattoon        FAIR      -1  -4  87 W9        30.60S WCI -16
Mt Carmel AP   FAIR      -3  -6  87 W3        30.66S
Olney-Noble AP FAIR       1  -3  82 W3        30.66S
Paris AP       FAIR      -4  -8  86 W7        30.61S WCI -18
Peoria         FAIR      -2  -7  79 W5        30.62R WCI -12
Pontiac        FAIR      -3  -5  91 W6        30.59S WCI -15
Rantoul        FAIR      -1  -4  86 W7        30.58S WCI -14
Robinson       FAIR      -6  -9  87 SW3       30.65F
Springfield    FAIR      -4  -8  83 W8        30.64S WCI -19
Taylorville    FAIR      -2  -6  84 W7        30.64S WCI -16
$$

...REGIONAL REPORTS...


CITY           SKY/WX    TMP DP  RH WIND       PRES   REMARKS
Chicago O`Hare FAIR       5   0  79 W7        30.52S WCI  -7
Kankakee       FAIR      -2  -7  81 W6        30.58R WCI -14
Moline         FAIR      -1  -5  82 SW7       30.59S WCI -14
Mount Sterling CLOUDY    -1  -5  84 W6        30.63S WCI -13
Mount Vernon   FAIR       2  -3  80 CALM      30.67S
Pittsfield     CLOUDY     1  -3  83 W7        30.66R WCI -12
Quincy         CLOUDY    -3  -6  87 SW6       30.64S WCI -15
Rockford       FAIR      -4  -8  83 S5        30.55S WCI -15
$$


CITY           SKY/WX    TMP DP  RH WIND       PRES   REMARKS
Burlington     CLOUDY    -3  -8  79 W7        30.62R WCI -16
Cedar Rapids   FAIR      -5 -10  79 CALM      30.54S
Des Moines     CLOUDY    -1  -6  79 SW5       30.55F WCI -11
Kirksville     CLOUDY    -4  -5  95 SW5       30.62S WCI -15
Ottumwa        CLOUDY    -2  -7  79 SW6       30.58F WCI -14
St Louis       CLOUDY     3  -1  83 W5        30.67S WCI  -6
$$


CITY           SKY/WX    TMP DP  RH WIND       PRES   REMARKS
Terre Haute    FAIR      -3  -8  79 CALM      30.62R
Evansville     CLOUDY     9   4  80 NW7       30.67R WCI  -2
Indianapolis   FAIR       0  -3  87 W9        30.56R WCI -15
Lafayette      FAIR      -1  -3  91 SW3       30.57S
Madison        FAIR       1  -3  83 SW3       30.45F
Milwaukee      FAIR       6   2  83 W8        30.46F WCI  -7
$$





USA.gov is the U.S. government's official web portal to all federal, state and local government web resources and services.